When you browse on this site, cookies collect data to enhance your experience and personalize the content and advertising you see.
Visit our Privacy Policy to learn more. By continuing to use the site, you agree to this use of cookies and data.

Hourly Weather Apatzingan de la Constitucion

Today, 14 July, Tuesday

Time Temperature Precipitation Wind Pressure Humidity
00:00 +25°C° 1 mm 1 mps 732 mmHg 90%
01:00 +23°C° 1 mm 0 mps 732 mmHg 92%
02:00 +23°C° 1 mm 0 mps 732 mmHg 94%
03:00 +22°C° 0.1 mm 0 mps 732 mmHg 94%
04:00 +22°C° 0.1 mm 0 mps 732 mmHg 94%
05:00 +22°C° 0.1 mm 0 mps 732 mmHg 95%
06:00 +23°C° 0 mm 0 mps 732 mmHg 92%
07:00 +25°C° 0 mm 0 mps 732 mmHg 89%
08:00 +28°C° 0 mm 1 mps 733 mmHg 86%
09:00 +30°C° 0.1 mm 1 mps 733 mmHg 78%
10:00 +32°C° 0.1 mm 1 mps 732 mmHg 71%
11:00 +34°C° 0.1 mm 1 mps 732 mmHg 64%
12:00 +35°C° 0.2 mm 1 mps 732 mmHg 61%
13:00 +35°C° 0.2 mm 1 mps 731 mmHg 58%
14:00 +36°C° 0.2 mm 1 mps 731 mmHg 55%
15:00 +35°C° 0.3 mm 1 mps 730 mmHg 58%
16:00 +35°C° 0.3 mm 1 mps 730 mmHg 61%
17:00 +34°C° 0.3 mm 1 mps 729 mmHg 63%
18:00 +32°C° 0.2 mm 1 mps 730 mmHg 67%
19:00 +31°C° 0.2 mm 1 mps 730 mmHg 70%
20:00 +29°C° 0.2 mm 1 mps 731 mmHg 74%
21:00 +28°C° 0.5 mm 1 mps 731 mmHg 78%
22:00 +27°C° 0.5 mm 1 mps 731 mmHg 83%
23:00 +26°C° 0.5 mm 1 mps 732 mmHg 87%

Tomorrow, 15 July, Wednesday

Time Temperature Precipitation Wind Pressure Humidity
00:00 +26°C° 0.7 mm 1 mps 731 mmHg 88%
01:00 +26°C° 0.7 mm 1 mps 731 mmHg 90%
02:00 +25°C° 0.7 mm 1 mps 731 mmHg 91%
03:00 +23°C° 0.7 mm 0 mps 731 mmHg 92%
04:00 +23°C° 0.7 mm 0 mps 731 mmHg 93%
05:00 +23°C° 0.7 mm 0 mps 731 mmHg 93%
06:00 +24°C° 0.1 mm 0 mps 731 mmHg 90%
07:00 +25°C° 0.1 mm 0 mps 732 mmHg 87%
08:00 +27°C° 0.1 mm 0 mps 732 mmHg 84%
09:00 +28°C° 0.3 mm 0 mps 732 mmHg 78%
10:00 +32°C° 0.3 mm 1 mps 732 mmHg 71%
11:00 +34°C° 0.3 mm 1 mps 732 mmHg 65%
12:00 +34°C° 0.3 mm 1 mps 731 mmHg 62%
13:00 +35°C° 0.3 mm 1 mps 731 mmHg 60%
14:00 +35°C° 0.3 mm 1 mps 730 mmHg 58%
15:00 +33°C° 0.3 mm 0 mps 730 mmHg 60%
16:00 +32°C° 0.3 mm 0 mps 729 mmHg 62%
17:00 +32°C° 0.3 mm 0 mps 729 mmHg 65%
18:00 +30°C° 0.3 mm 0 mps 730 mmHg 69%
19:00 +30°C° 0.3 mm 1 mps 730 mmHg 73%
20:00 +29°C° 0.3 mm 1 mps 731 mmHg 77%
21:00 +28°C° 0.7 mm 1 mps 731 mmHg 79%
22:00 +27°C° 0.7 mm 1 mps 731 mmHg 82%
23:00 +27°C° 0.7 mm 1 mps 731 mmHg 84%

Day after tomorrow, 16 July, Thursday

Time Temperature Precipitation Wind Pressure Humidity
00:00 +26°C° 0.5 mm 1 mps 731 mmHg 86%
01:00 +26°C° 0.5 mm 1 mps 731 mmHg 88%
02:00 +25°C° 0.5 mm 1 mps 731 mmHg 89%
03:00 +25°C° 1.4 mm 1 mps 731 mmHg 90%
04:00 +25°C° 1.4 mm 1 mps 731 mmHg 92%
05:00 +23°C° 1.4 mm 0 mps 731 mmHg 93%
06:00 +24°C° 0.1 mm 0 mps 732 mmHg 90%
07:00 +27°C° 0.1 mm 1 mps 732 mmHg 87%
08:00 +29°C° 0.1 mm 1 mps 733 mmHg 84%
09:00 +31°C° 0.3 mm 1 mps 733 mmHg 76%
10:00 +33°C° 0.3 mm 1 mps 732 mmHg 68%
11:00 +35°C° 0.3 mm 1 mps 732 mmHg 60%
12:00 +35°C° 0.3 mm 1 mps 731 mmHg 57%
13:00 +36°C° 0.3 mm 1 mps 731 mmHg 54%
14:00 +37°C° 0.3 mm 1 mps 731 mmHg 51%
15:00 +36°C° 0.1 mm 1 mps 730 mmHg 55%
16:00 +35°C° 0.1 mm 1 mps 730 mmHg 59%
17:00 +32°C° 0.1 mm 0 mps 730 mmHg 63%
18:00 +32°C° 0.2 mm 1 mps 730 mmHg 66%
19:00 +31°C° 0.2 mm 1 mps 731 mmHg 70%
20:00 +29°C° 0.2 mm 1 mps 732 mmHg 73%
21:00 +28°C° 1.7 mm 1 mps 732 mmHg 79%
22:00 +27°C° 1.7 mm 1 mps 732 mmHg 84%
23:00 +26°C° 1.7 mm 1 mps 733 mmHg 89%

17 July, Friday

Time Temperature Precipitation Wind Pressure Humidity
00:00 +26°C° 0.5 mm 1 mps 733 mmHg 89%
01:00 +26°C° 0.5 mm 1 mps 732 mmHg 89%
02:00 +24°C° 0.5 mm 0 mps 732 mmHg 89%
03:00 +23°C° 1.5 mm 0 mps 732 mmHg 90%
04:00 +25°C° 1.5 mm 1 mps 732 mmHg 91%
05:00 +25°C° 1.5 mm 1 mps 732 mmHg 92%
06:00 +24°C° 0.1 mm 0 mps 733 mmHg 90%
07:00 +25°C° 0.1 mm 0 mps 733 mmHg 87%
08:00 +26°C° 0.1 mm 0 mps 733 mmHg 85%
09:00 +28°C° 0.3 mm 0 mps 733 mmHg 77%
10:00 +30°C° 0.3 mm 0 mps 733 mmHg 70%
11:00 +34°C° 0.3 mm 1 mps 732 mmHg 62%
12:00 +35°C° 0.4 mm 1 mps 732 mmHg 59%
13:00 +35°C° 0.4 mm 1 mps 731 mmHg 57%
14:00 +35°C° 0.4 mm 1 mps 731 mmHg 54%
15:00 +35°C° 0.2 mm 1 mps 730 mmHg 58%
16:00 +34°C° 0.2 mm 1 mps 730 mmHg 61%
17:00 +31°C° 0.2 mm 0 mps 730 mmHg 65%
18:00 +31°C° 0.1 mm 1 mps 730 mmHg 67%
19:00 +30°C° 0.1 mm 1 mps 731 mmHg 69%
20:00 +28°C° 0.1 mm 1 mps 732 mmHg 71%
21:00 +28°C° 0.2 mm 1 mps 732 mmHg 73%
22:00 +27°C° 0.2 mm 1 mps 732 mmHg 75%
23:00 +26°C° 0.2 mm 1 mps 732 mmHg 76%

18 July, Saturday

Time Temperature Precipitation Wind Pressure Humidity
00:00 +26°C° 0.5 mm 1 mps 732 mmHg 79%
01:00 +26°C° 0.5 mm 1 mps 732 mmHg 81%
02:00 +25°C° 0.5 mm 1 mps 731 mmHg 84%
03:00 +25°C° 0.3 mm 1 mps 731 mmHg 84%
04:00 +25°C° 0.3 mm 1 mps 731 mmHg 85%
05:00 +24°C° 0.3 mm 1 mps 731 mmHg 85%
06:00 +24°C° 0.1 mm 0 mps 732 mmHg 82%
07:00 +25°C° 0.1 mm 0 mps 732 mmHg 79%
08:00 +27°C° 0.1 mm 0 mps 732 mmHg 77%
09:00 +29°C° 0.2 mm 0 mps 732 mmHg 70%
10:00 +33°C° 0.2 mm 1 mps 732 mmHg 63%
11:00 +35°C° 0.2 mm 1 mps 732 mmHg 57%
12:00 +35°C° 0.1 mm 1 mps 731 mmHg 53%
13:00 +36°C° 0.1 mm 1 mps 730 mmHg 50%
14:00 +36°C° 0.1 mm 1 mps 730 mmHg 46%
15:00 +36°C° 0.2 mm 1 mps 730 mmHg 51%
16:00 +35°C° 0.2 mm 1 mps 730 mmHg 56%
17:00 +32°C° 0.2 mm 0 mps 729 mmHg 61%
18:00 +32°C° 0.1 mm 1 mps 730 mmHg 63%
19:00 +30°C° 0.1 mm 1 mps 731 mmHg 66%
20:00 +28°C° 0.1 mm 1 mps 731 mmHg 68%
21:00 +28°C° 0.1 mm 1 mps 731 mmHg 69%
22:00 +27°C° 0.1 mm 1 mps 732 mmHg 70%
23:00 +26°C° 0.1 mm 1 mps 732 mmHg 71%

19 July, Sunday

Time Temperature Precipitation Wind Pressure Humidity
00:00 +26°C° 0 mm 1 mps 731 mmHg 73%
01:00 +25°C° 0 mm 1 mps 731 mmHg 74%
02:00 +25°C° 0 mm 1 mps 731 mmHg 76%
03:00 +24°C° 0.2 mm 1 mps 731 mmHg 77%
04:00 +24°C° 0.2 mm 1 mps 731 mmHg 79%
05:00 +24°C° 0.2 mm 1 mps 731 mmHg 80%
06:00 +23°C° 0.1 mm 0 mps 731 mmHg 78%
07:00 +25°C° 0.1 mm 0 mps 732 mmHg 76%
08:00 +26°C° 0.1 mm 0 mps 732 mmHg 74%
09:00 +30°C° 0.1 mm 1 mps 732 mmHg 67%
10:00 +32°C° 0.1 mm 1 mps 732 mmHg 61%
11:00 +35°C° 0.1 mm 1 mps 732 mmHg 55%
12:00 +35°C° 0.1 mm 1 mps 731 mmHg 52%
13:00 +36°C° 0.1 mm 1 mps 731 mmHg 49%
14:00 +37°C° 0.1 mm 1 mps 730 mmHg 46%
15:00 +36°C° 0.2 mm 1 mps 730 mmHg 50%
16:00 +33°C° 0.2 mm 0 mps 730 mmHg 55%
17:00 +32°C° 0.2 mm 0 mps 729 mmHg 59%
18:00 +32°C° 0.2 mm 1 mps 730 mmHg 62%
19:00 +30°C° 0.2 mm 1 mps 730 mmHg 65%
20:00 +28°C° 0.2 mm 1 mps 730 mmHg 68%
21:00 +28°C° 0 mm 1 mps 730 mmHg 69%
22:00 +27°C° 0 mm 1 mps 731 mmHg 70%
23:00 +27°C° 0 mm 1 mps 731 mmHg 72%
Show more